[[{"header":{"parameterUnit":"m.s-1","parameterCategory":1,"la1":30.2991,"la2":30.254,"lo1":-89.0895,"lo2":-89.0444,"dy":0.0017,"dx":0.0017,"nx":28,"ny":28,"refTime":"2024-03-20T21:00:00:Z","depth":0,"parameterNumber":2,"parameterNumberName":"U-component_of_WINDS"},"data":[0,0,0,0,0,0,0,0,0,0,0,0,0,0,0,0,0,0,0,0,0,0,0,0,0,0,0,0,0,0,0,0,0,0,0,0,0,0,0,0,0,0,0,0,0,0,0,0,0,0,0,0,0,0,0,0,0,0,-5.9802,-5.9799,0,-5.9495,-5.9491,-5.9488,-5.9245,-5.9243,-5.9241,-5.9238,-5.8909,-5.8902,-5.8896,0,0,0,0,0,0,0,0,0,0,0,0,0,-6.0165,-6.0159,-5.9802,-5.9798,-5.9795,-5.9495,-5.9491,-5.9487,-5.9246,-5.9243,-5.924,-5.9237,-5.8911,-5.8903,-5.8895,0,0,0,0,0,0,0,0,0,0,0,0,0,-5.9947,-6.0158,-5.9803,-5.9639,-5.9621,-5.9496,-5.9491,-5.9486,-5.9246,-5.9243,-5.9239,-5.9236,-5.8913,-5.8904,-5.8894,-5.8903,0,0,-5.8864,-5.8859,0,0,0,0,0,0,0,0,-5.996,-5.9934,-5.9667,-5.965,-5.963,-5.9405,-5.9497,-5.929,-5.9247,-5.9388,-5.9238,-5.9234,-5.9076,-5.9052,-5.9002,-5.8888,-5.8873,-5.8863,-5.8857,-5.8853,-5.885,0,0,0,0,0,0,0,-5.9975,-5.9946,-5.968,-5.9663,-5.964,-5.9575,-5.954,-5.9457,-5.9255,-5.9375,-5.9357,-5.9325,-5.9065,-5.9012,-5.8992,-5.8869,-5.8863,-5.8854,-5.8848,-5.8844,-5.8743,-5.8746,0,0,0,0,0,0,-6.0018,-5.996,-5.969,-5.9671,-5.979,-5.9571,-5.9532,-5.948,-5.9255,-5.9218,-5.9328,-5.9315,-5.9031,-5.9004,-5.898,-5.8975,-5.8853,-5.8843,-5.8838,-5.874,-5.8744,-5.8748,0,0,0,0,0,0,-6.0027,-5.9996,-5.9702,-5.981,-5.9768,-5.9569,-5.9512,-5.9476,-5.9423,-5.922,-5.9181,-5.9313,-5.9027,-5.8994,-5.8924,-5.896,-5.8839,-5.883,-5.8736,-5.8741,-5.8746,-5.8967,0,0,0,0,0,0,-6.0038,-6.0001,-6.0006,-5.9813,-5.9763,-5.9658,-5.9515,-5.9473,-5.9409,-5.9388,-5.9195,-5.9159,-5.9021,-5.8941,-5.8915,-5.8944,-5.8822,-5.8732,-5.8738,-5.8744,-5.8956,-5.8979,-5.8999,0,0,0,0,0,-6.0052,-6.0078,-6.0008,-5.9977,-5.9767,-5.9661,-5.9632,-5.9477,-5.9413,-5.9414,-5.9282,-5.9165,-5.896,-5.8936,-5.8904,-5.8932,-5.8729,-5.8737,-5.8744,-5.8946,-5.8974,-5.8998,0,0,0,0,0,0,-6.0276,-6.005,-5.9969,-5.9935,-5.982,-5.962,-5.9617,-5.9512,-5.9409,-5.9394,-5.9201,-5.9159,-5.9111,-5.9012,-5.899,-5.8927,-5.8829,-5.8831,-5.8994,-5.9019,-5.904,-5.9065,-5.8814,0,0,0,0,0,-6.0323,-6.0261,-6.0063,-6.0051,-5.9998,-5.9819,-5.9766,-5.9657,-5.9528,-5.9476,-5.934,-5.9215,-5.9121,-5.9064,-5.8967,-5.8939,-5.8892,-5.8942,-5.8964,-5.8982,-5.8986,-5.8962,-5.8982,-5.8772,-5.8771,-5.8771,0,0,-6.0416,-6.0284,-6.0256,-6.0093,-5.9991,-5.9926,-5.9779,-5.9716,-5.9665,-5.9465,-5.9393,-5.9289,-5.9135,-5.9088,-5.9059,-5.9004,-5.9033,-5.8992,-5.9008,-5.9001,-5.8972,-5.8992,-5.901,-5.8776,-5.8776,-5.8775,0,0,-6.0554,-6.0449,-6.0428,-6.0329,-6.0178,-6.0058,-6.0053,-5.9869,-5.9793,-5.9719,-5.9568,-5.95,-5.9344,-5.9242,-5.9169,-5.9266,-5.9153,-5.9239,-5.9352,-5.9331,-5.9348,-5.9361,-5.9396,-5.941,-5.9243,-5.9244,-5.9244,0,-6.0688,-6.059,-6.0428,-6.0376,-6.0307,-6.0127,-6.0102,-6.0011,-5.9835,-5.9789,-5.9731,-5.9532,-5.9416,-5.9341,-5.9365,-5.9312,-5.9297,-5.9261,-5.9359,-5.9371,-5.9382,-5.9412,-5.9426,-5.9255,-5.9254,-5.9253,-5.9251,0,-6.0762,-6.0695,-6.0695,-6.0535,-6.0465,-6.0426,-6.0254,-6.0202,-6.0098,-5.9983,-5.9908,-5.9762,-5.9633,-5.9606,-5.9502,-5.9515,-5.9486,-5.9397,-5.9294,-5.9416,-5.9441,-5.9452,-5.9272,-5.9267,-5.9264,-5.9261,0,0,-6.1034,-6.0786,-6.0788,-6.0713,-6.0532,-6.0474,-6.0425,-6.0303,-6.0262,-6.0144,-6.0096,-5.9968,-5.9884,-5.9801,-5.9683,-5.9665,-5.9751,-5.9576,-5.957,-5.9615,-5.9754,-5.9825,-5.9841,-5.9674,-5.9676,-5.9677,-5.9767,0,-6.1144,-6.1053,-6.0905,-6.0859,-6.0794,-6.0621,-6.0576,-6.0458,-6.0349,-6.0273,-6.0147,-6.0061,-5.9957,-5.9906,-5.988,-5.9747,-5.9776,-5.9737,-5.9624,-5.9622,-5.9671,-5.9854,-5.9927,-6.002,-5.9776,-5.9778,-5.9779,0,-6.1261,-6.116,-6.111,-6.0933,-6.0899,-6.0864,-6.0739,-6.067,-6.053,-6.045,-6.036,-6.0232,-6.0165,-6.0073,-5.9976,-5.9954,-5.9897,-5.9824,-5.9823,-5.9808,-5.971,-5.9844,-6.0046,-6.0061,-5.9793,-5.9791,-5.9791,0,-6.1467,-6.1315,-6.1266,-6.1206,-6.0998,-6.0977,-6.0889,-6.0745,-6.0681,-6.0569,-6.0525,-6.0406,-6.034,-6.0248,-6.009,-6.0037,-6.001,-5.9904,-5.9939,-5.9944,-5.9943,-5.9946,-6.014,-5.9906,-5.9906,-5.9906,-5.9905,0,-6.1606,-6.1582,-6.1356,-6.1326,-6.1292,-6.1119,-6.1088,-6.0982,-6.0856,-6.0798,-6.0638,-6.0586,-6.038,-6.0301,-6.0176,-6.0115,-6.0085,-6.0017,-5.9984,-6.0032,-6.0041,-5.9994,-5.9983,-5.9909,-5.9908,-5.9907,-5.9907,0,-6.1831,-6.1679,-6.1613,-6.1422,-6.1373,-6.1357,-6.1191,-6.1152,-6.1032,-6.0961,-6.0933,-6.0744,-6.0644,-6.0477,-6.0326,-6.0241,-6.0203,-6.0147,-6.0254,-6.0234,-6.0279,-6.0277,-6.045,-6.0464,-6.0222,-6.0225,-6.0227,0,-6.1931,-6.1909,-6.1717,-6.167,-6.1588,-6.1513,-6.1447,-6.1274,-6.1211,-6.1049,-6.1029,-6.0917,-6.0819,-6.0666,-6.0512,-6.0395,-6.0335,-6.0403,-6.0316,-6.0365,-6.0336,-6.034,-6.0336,-6.0425,-6.0428,-6.0431,-6.0433,0,-6.2124,-6.205,-6.1965,-6.1853,-6.1781,-6.1683,-6.1576,-6.1544,-6.1346,-6.1282,-6.1181,-6.1106,-6.0953,-6.0843,-6.0705,-6.0606,-6.0486,-6.0462,-6.0464,-6.0514,-6.0577,-6.0543,-6.031,-6.0459,-6.0456,-6.0455,-6.0453,-6.0452,-6.2289,-6.2262,-6.2123,-6.2033,-6.1935,-6.1839,-6.1794,-6.1669,-6.1583,-6.1451,-6.1351,-6.1256,-6.1111,-6.0914,-6.0822,-6.0742,-6.0687,-6.069,-6.0691,-6.0695,-6.0714,-6.0589,-6.0715,-6.0714,-6.0713,-6.0712,-6.0712,0,-6.2476,-6.2378,-6.2297,-6.2155,-6.2083,-6.198,-6.1855,-6.18,-6.1721,-6.1599,-6.1507,-6.1389,-6.128,-6.1118,-6.0996,-6.0962,-6.0904,-6.0936,-6.0937,-6.0916,-6.0769,-6.078,-6.0986,-6.0986,-6.0986,-6.0985,-6.0985,-6.0985,-6.2564,-6.2513,-6.2422,-6.2318,-6.2217,-6.2128,-6.2066,-6.1974,-6.1876,-6.1754,-6.1665,-6.1561,-6.1421,-6.1287,-6.1182,-6.1136,-6.1098,-6.1149,-6.1086,-6.0952,-6.0927,-6.0903,-6.0912,-6.1142,-6.1142,-6.1239,-6.124,-6.1241]},{"header":{"parameterUnit":"m.s-1","parameterCategory":1,"la1":30.2991,"la2":30.254,"lo1":-89.0895,"lo2":-89.0444,"dy":0.0017,"dx":0.0017,"nx":28,"ny":28,"refTime":"2024-03-20T21:00:00:Z","depth":0,"parameterNumber":3,"parameterNumberName":"V-component_of_WINDS"},"data":[0,0,0,0,0,0,0,0,0,0,0,0,0,0,0,0,0,0,0,0,0,0,0,0,0,0,0,0,0,0,0,0,0,0,0,0,0,0,0,0,0,0,0,0,0,0,0,0,0,0,0,0,0,0,0,0,0,0,-7.0826,-7.0828,0,-7.1032,-7.1035,-7.1037,-7.0828,-7.0819,-7.0811,-7.0803,-7.1022,-7.1035,-7.1048,0,0,0,0,0,0,0,0,0,0,0,0,0,-7.0253,-7.0264,-7.0826,-7.0828,-7.0831,-7.1032,-7.1035,-7.1038,-7.0829,-7.0819,-7.0809,-7.08,-7.1018,-7.1033,-7.105,0,0,0,0,0,0,0,0,0,0,0,0,0,-7.0485,-7.0268,-7.0825,-7.0751,-7.0746,-7.1031,-7.1035,-7.1038,-7.0831,-7.0819,-7.0806,-7.0795,-7.1012,-7.1032,-7.1052,-7.1423,0,0,-7.1114,-7.1122,0,0,0,0,0,0,0,0,-7.0472,-7.0506,-7.0759,-7.0757,-7.0752,-7.0891,-7.0913,-7.1168,-7.0834,-7.0799,-7.0803,-7.0789,-7.0989,-7.101,-7.1076,-7.1433,-7.1442,-7.1115,-7.1128,-7.1136,-7.1142,0,0,0,0,0,0,0,-7.0456,-7.0496,-7.0908,-7.0763,-7.0759,-7.0708,-7.0727,-7.096,-7.0961,-7.0801,-7.0787,-7.0813,-7.0985,-7.1057,-7.108,-7.1446,-7.1115,-7.1133,-7.1145,-7.1153,-7.2111,-7.2124,0,0,0,0,0,0,-7.0448,-7.0484,-7.0901,-7.0914,-7.0579,-7.0728,-7.075,-7.0859,-7.0958,-7.0961,-7.0824,-7.0803,-7.1029,-7.1057,-7.1087,-7.1524,-7.1136,-7.1155,-7.1167,-7.2098,-7.2114,-7.2128,0,0,0,0,0,0,-7.0436,-7.0487,-7.0893,-7.0695,-7.0743,-7.0751,-7.0876,-7.087,-7.0942,-7.0974,-7.0974,-7.0898,-7.102,-7.1058,-7.1339,-7.1528,-7.1164,-7.1182,-7.2082,-7.2103,-7.2121,-7.2403,0,0,0,0,0,0,-7.0421,-7.0484,-7.0625,-7.07,-7.0754,-7.1142,-7.0887,-7.0883,-7.0977,-7.0951,-7.1044,-7.1047,-7.1014,-7.131,-7.1359,-7.155,-7.1198,-7.2065,-7.2091,-7.2115,-7.2377,-7.2431,-7.2476,0,0,0,0,0,-7.0401,-7.0699,-7.0634,-7.0685,-7.093,-7.1153,-7.1184,-7.1137,-7.0993,-7.1134,-7.1154,-7.1045,-7.15,-7.134,-7.1394,-7.1594,-7.2053,-7.2084,-7.2113,-7.2355,-7.242,-7.2475,0,0,0,0,0,0,-7.0651,-7.0708,-7.0636,-7.0967,-7.1056,-7.1117,-7.1295,-7.1209,-7.1343,-7.1314,-7.1252,-7.1275,-7.1571,-7.161,-7.1432,-7.1955,-7.1753,-7.1795,-7.1919,-7.1981,-7.2029,-7.2014,-7.1215,0,0,0,0,0,-7.0744,-7.0919,-7.096,-7.1248,-7.1296,-7.1288,-7.1384,-7.1339,-7.143,-7.1468,-7.1508,-7.1603,-7.1765,-7.1875,-7.2028,-7.2381,-7.2397,-7.2544,-7.2594,-7.2634,-7.2672,-7.2857,-7.2922,-7.2227,-7.2226,-7.2226,0,0,-7.094,-7.0992,-7.1107,-7.1299,-7.1363,-7.1546,-7.1322,-7.1526,-7.166,-7.15,-7.1765,-7.1798,-7.1899,-7.2216,-7.2358,-7.2258,-7.2866,-7.2673,-7.2705,-7.272,-7.2894,-7.296,-7.3019,-7.2247,-7.2243,-7.224,0,0,-7.1388,-7.1446,-7.169,-7.1757,-7.1855,-7.1847,-7.1906,-7.198,-7.1994,-7.2259,-7.214,-7.23,-7.2584,-7.2659,-7.2734,-7.3205,-7.3108,-7.3256,-7.3515,-7.3696,-7.3751,-7.3799,-7.3964,-7.4025,-7.3293,-7.3294,-7.3294,0,-7.1619,-7.1888,-7.1827,-7.2038,-7.2125,-7.1983,-7.2229,-7.2298,-7.2443,-7.2506,-7.2391,-7.274,-7.2798,-7.3129,-7.3243,-7.331,-7.3373,-7.3246,-7.3748,-7.3796,-7.384,-7.3996,-7.4059,-7.3311,-7.3309,-7.3307,-7.3306,0,-7.2165,-7.2353,-7.2538,-7.2677,-7.2784,-7.3013,-7.2986,-7.3102,-7.3047,-7.3051,-7.332,-7.3384,-7.3545,-7.362,-7.357,-7.3943,-7.3877,-7.3757,-7.3552,-7.3924,-7.407,-7.413,-7.3336,-7.333,-7.3324,-7.332,0,0,-7.278,-7.2877,-7.2947,-7.3005,-7.3101,-7.3245,-7.3465,-7.3619,-7.3718,-7.3822,-7.4003,-7.4244,-7.4131,-7.4217,-7.4173,-7.4333,-7.4696,-7.4191,-7.4193,-7.4281,-7.5107,-7.5196,-7.5267,-7.4632,-7.4643,-7.4652,-7.5097,0,-7.3229,-7.3608,-7.3557,-7.3921,-7.4092,-7.3957,-7.4148,-7.4228,-7.4236,-7.4382,-7.4392,-7.4562,-7.4402,-7.4451,-7.4603,-7.462,-7.4861,-7.4587,-7.48,-7.4808,-7.4778,-7.5344,-7.544,-7.5858,-7.5155,-7.5164,-7.5171,0,-7.3804,-7.3923,-7.4303,-7.4366,-7.4436,-7.4609,-7.4743,-7.4885,-7.4971,-7.4965,-7.5058,-7.4984,-7.5203,-7.4994,-7.5294,-7.5108,-7.5192,-7.5213,-7.5228,-7.5246,-7.5013,-7.5376,-7.599,-7.6053,-7.5261,-7.5254,-7.5247,0,-7.4211,-7.4467,-7.4726,-7.4781,-7.4862,-7.4986,-7.5026,-7.5099,-7.5193,-7.531,-7.537,-7.5513,-7.5592,-7.5703,-7.567,-7.5521,-7.5976,-7.5765,-7.5977,-7.5978,-7.608,-7.6074,-7.6715,-7.6136,-7.6135,-7.6134,-7.6132,0,-7.4717,-7.4954,-7.4909,-7.5069,-7.5329,-7.5268,-7.5528,-7.5552,-7.5617,-7.5778,-7.5671,-7.5825,-7.5771,-7.5922,-7.5897,-7.6147,-7.6184,-7.6185,-7.6176,-7.6195,-7.6194,-7.6249,-7.6219,-7.615,-7.6146,-7.6143,-7.614,0,-7.5217,-7.5196,-7.5469,-7.5522,-7.554,-7.573,-7.5775,-7.5924,-7.5921,-7.6127,-7.6171,-7.6169,-7.634,-7.6316,-7.6509,-7.6491,-7.6802,-7.6758,-7.6772,-7.6762,-7.6974,-7.6954,-7.7673,-7.7763,-7.7126,-7.7132,-7.7138,0,-7.5541,-7.5719,-7.5789,-7.5888,-7.5935,-7.6097,-7.619,-7.6136,-7.6238,-7.6345,-7.6482,-7.6642,-7.6767,-7.7047,-7.7062,-7.7207,-7.7165,-7.7406,-7.7186,-7.7198,-7.7166,-7.7156,-7.7172,-7.7451,-7.7458,-7.7464,-7.7468,0,-7.6117,-7.6096,-7.6234,-7.6368,-7.6482,-7.6586,-7.6679,-7.6766,-7.6719,-7.6839,-7.7011,-7.7108,-7.73,-7.746,-7.7595,-7.7636,-7.7546,-7.7537,-7.7593,-7.7615,-7.7615,-7.7615,-7.689,-7.7521,-7.7516,-7.7512,-7.7509,-7.7507,-7.6537,-7.6688,-7.6759,-7.6915,-7.6978,-7.7066,-7.7207,-7.722,-7.7361,-7.7512,-7.7471,-7.7665,-7.7741,-7.7912,-7.7967,-7.8118,-7.8029,-7.8112,-7.8132,-7.8154,-7.8177,-7.759,-7.8142,-7.8141,-7.8139,-7.8138,-7.8137,0,-7.7106,-7.7143,-7.7287,-7.7418,-7.754,-7.744,-7.7536,-7.7646,-7.7817,-7.7894,-7.8018,-7.8213,-7.8366,-7.8392,-7.8537,-7.8652,-7.8614,-7.8692,-7.8683,-7.8693,-7.825,-7.8185,-7.872,-7.872,-7.872,-7.872,-7.872,-7.872,-7.7416,-7.7664,-7.7651,-7.7928,-7.7964,-7.8151,-7.8214,-7.8294,-7.8355,-7.8577,-7.8702,-7.8716,-7.8772,-7.892,-7.9055,-7.9058,-7.9116,-7.9211,-7.9198,-7.8784,-7.8725,-7.867,-7.8609,-7.9224,-7.9225,-7.9629,-7.9633,-7.9636]}]]